Meteo orario Koziol

Oggi, 2 Marzo, Martedi

Tempo Temperatura Precipitazioni Vento Pressione Umidità
00:00 -1°C° 0 mm 4 m/s 759 mm Hg 94%
01:00 -1°C° 0 mm 4 m/s 759 mm Hg 95%
02:00 -1°C° 0 mm 4 m/s 759 mm Hg 95%
03:00 -2°C° 0 mm 4 m/s 758 mm Hg 95%
04:00 -2°C° 0 mm 4 m/s 758 mm Hg 95%
05:00 -2°C° 0 mm 4 m/s 758 mm Hg 95%
06:00 -2°C° 0 mm 5 m/s 758 mm Hg 94%
07:00 -1°C° 0 mm 5 m/s 758 mm Hg 96%
08:00 0°C° 0 mm 5 m/s 758 mm Hg 89%
09:00 +2°C° 0 mm 5 m/s 758 mm Hg 83%
10:00 +3°C° 0 mm 6 m/s 757 mm Hg 76%
11:00 +4°C° 0 mm 6 m/s 757 mm Hg 72%
12:00 +5°C° 0 mm 6 m/s 757 mm Hg 67%
13:00 +7°C° 0 mm 6 m/s 757 mm Hg 65%
14:00 +7°C° 0 mm 5 m/s 757 mm Hg 65%
15:00 +7°C° 0 mm 5 m/s 756 mm Hg 64%
16:00 +7°C° 0 mm 5 m/s 756 mm Hg 64%
17:00 +6°C° 0 mm 4 m/s 757 mm Hg 70%
18:00 +5°C° 0 mm 4 m/s 757 mm Hg 77%
19:00 +3°C° 0 mm 3 m/s 757 mm Hg 83%
20:00 +3°C° 0 mm 3 m/s 757 mm Hg 85%
21:00 +2°C° 0 mm 3 m/s 758 mm Hg 87%
22:00 +2°C° 0 mm 2 m/s 758 mm Hg 90%
23:00 +2°C° 0 mm 2 m/s 758 mm Hg 90%

Domani, 3 Marzo, Mercoledi

Tempo Temperatura Precipitazioni Vento Pressione Umidità
00:00 +2°C° 0 mm 2 m/s 758 mm Hg 91%
01:00 +1°C° 0 mm 2 m/s 758 mm Hg 92%
02:00 +1°C° 0 mm 2 m/s 758 mm Hg 92%
03:00 +2°C° 0 mm 1 m/s 757 mm Hg 92%
04:00 +1°C° 0 mm 1 m/s 757 mm Hg 93%
05:00 +1°C° 0 mm 1 m/s 757 mm Hg 93%
06:00 +2°C° 0 mm 1 m/s 757 mm Hg 93%
07:00 +2°C° 0 mm 1 m/s 757 mm Hg 93%
08:00 +3°C° 0 mm 1 m/s 757 mm Hg 86%
09:00 +5°C° 0 mm 1 m/s 757 mm Hg 79%
10:00 +6°C° 0 mm 1 m/s 756 mm Hg 72%
11:00 +6°C° 0 mm 2 m/s 756 mm Hg 67%
12:00 +7°C° 0 mm 2 m/s 756 mm Hg 62%
13:00 +9°C° 0 mm 2 m/s 755 mm Hg 58%
14:00 +9°C° 0 mm 2 m/s 754 mm Hg 59%
15:00 +9°C° 0 mm 2 m/s 754 mm Hg 59%
16:00 +9°C° 0 mm 2 m/s 753 mm Hg 60%
17:00 +7°C° 0 mm 2 m/s 752 mm Hg 64%
18:00 +6°C° 0 mm 2 m/s 752 mm Hg 67%
19:00 +5°C° 0 mm 2 m/s 752 mm Hg 71%
20:00 +4°C° 0 mm 3 m/s 751 mm Hg 74%
21:00 +3°C° 0 mm 3 m/s 750 mm Hg 76%
22:00 +3°C° 0 mm 3 m/s 750 mm Hg 79%
23:00 +3°C° 0 mm 3 m/s 749 mm Hg 80%

Dopodomani, 4 Marzo, Giovedi

Tempo Temperatura Precipitazioni Vento Pressione Umidità
00:00 +1°C° 0 mm 4 m/s 749 mm Hg 80%
01:00 +1°C° 0 mm 4 m/s 748 mm Hg 81%
02:00 +1°C° 0 mm 4 m/s 747 mm Hg 82%
03:00 +1°C° 0 mm 5 m/s 747 mm Hg 83%
04:00 +1°C° 0 mm 5 m/s 746 mm Hg 84%
05:00 +1°C° 0 mm 5 m/s 745 mm Hg 84%
06:00 +1°C° 0 mm 5 m/s 745 mm Hg 85%
07:00 +1°C° 0 mm 5 m/s 745 mm Hg 85%
08:00 +3°C° 0 mm 6 m/s 744 mm Hg 82%
09:00 +4°C° 0 mm 6 m/s 744 mm Hg 78%
10:00 +5°C° 0 mm 7 m/s 744 mm Hg 74%
11:00 +6°C° 0 mm 7 m/s 744 mm Hg 69%
12:00 +8°C° 0 mm 7 m/s 743 mm Hg 64%
13:00 +9°C° 0 mm 7 m/s 743 mm Hg 60%
14:00 +8°C° 0 mm 7 m/s 743 mm Hg 61%
15:00 +6°C° 0 mm 7 m/s 742 mm Hg 62%
16:00 +7°C° 0 mm 6 m/s 742 mm Hg 64%
17:00 +4°C° 0 mm 6 m/s 742 mm Hg 68%
18:00 +3°C° 0 mm 5 m/s 742 mm Hg 72%
19:00 +1°C° 0 mm 5 m/s 743 mm Hg 76%
20:00 +1°C° 0 mm 4 m/s 743 mm Hg 77%
21:00 0°C° 0 mm 4 m/s 743 mm Hg 79%
22:00 0°C° 0 mm 4 m/s 743 mm Hg 81%
23:00 -1°C° 0.1 mm 4 m/s 743 mm Hg 81%

5 Marzo, Venerdi

Tempo Temperatura Precipitazioni Vento Pressione Umidità
00:00 -1°C° 0.1 mm 4 m/s 743 mm Hg 81%
01:00 -2°C° 0.1 mm 4 m/s 744 mm Hg 81%
02:00 -2°C° 0 mm 4 m/s 744 mm Hg 80%
03:00 -2°C° 0 mm 4 m/s 744 mm Hg 79%
04:00 -3°C° 0 mm 4 m/s 744 mm Hg 78%
05:00 -3°C° 0 mm 4 m/s 745 mm Hg 77%
06:00 -3°C° 0 mm 4 m/s 745 mm Hg 76%
07:00 -3°C° 0 mm 4 m/s 746 mm Hg 75%
08:00 -3°C° 0 mm 4 m/s 746 mm Hg 68%
09:00 -2°C° 0 mm 4 m/s 747 mm Hg 62%
10:00 -1°C° 0 mm 4 m/s 747 mm Hg 55%
11:00 0°C° 0 mm 4 m/s 747 mm Hg 51%
12:00 0°C° 0 mm 4 m/s 747 mm Hg 47%
13:00 +1°C° 0 mm 4 m/s 748 mm Hg 43%
14:00 +1°C° 0 mm 4 m/s 748 mm Hg 44%
15:00 +1°C° 0 mm 4 m/s 748 mm Hg 46%
16:00 0°C° 0 mm 4 m/s 748 mm Hg 47%
17:00 -1°C° 0 mm 4 m/s 749 mm Hg 52%
18:00 -1°C° 0 mm 3 m/s 749 mm Hg 57%
19:00 -2°C° 0 mm 2 m/s 750 mm Hg 62%
20:00 -2°C° 0 mm 2 m/s 750 mm Hg 61%
21:00 -2°C° 0 mm 2 m/s 751 mm Hg 60%
22:00 0°C° 0 mm 1 m/s 751 mm Hg 59%
23:00 -2°C° 0 mm 2 m/s 751 mm Hg 59%

6 Marzo, Sabato

Tempo Temperatura Precipitazioni Vento Pressione Umidità
00:00 -2°C° 0 mm 2 m/s 752 mm Hg 59%
01:00 -2°C° 0 mm 2 m/s 752 mm Hg 59%
02:00 -2°C° 0.1 mm 3 m/s 752 mm Hg 67%
03:00 -4°C° 0.1 mm 3 m/s 752 mm Hg 76%
04:00 -4°C° 0.1 mm 4 m/s 753 mm Hg 85%
05:00 -4°C° 0 mm 4 m/s 753 mm Hg 80%
06:00 -4°C° 0 mm 4 m/s 754 mm Hg 76%
07:00 -4°C° 0 mm 4 m/s 754 mm Hg 71%
08:00 -4°C° 0 mm 4 m/s 755 mm Hg 60%
09:00 -3°C° 0 mm 4 m/s 755 mm Hg 49%
10:00 -2°C° 0 mm 4 m/s 755 mm Hg 38%
11:00 -1°C° 0 mm 4 m/s 755 mm Hg 37%
12:00 -1°C° 0 mm 4 m/s 755 mm Hg 37%
13:00 0°C° 0 mm 4 m/s 755 mm Hg 37%
14:00 0°C° 0 mm 4 m/s 755 mm Hg 39%
15:00 -1°C° 0 mm 4 m/s 755 mm Hg 42%
16:00 -1°C° 0 mm 4 m/s 754 mm Hg 45%
17:00 -2°C° 0 mm 4 m/s 754 mm Hg 50%
18:00 -2°C° 0 mm 4 m/s 754 mm Hg 55%
19:00 -2°C° 0 mm 3 m/s 754 mm Hg 60%
20:00 -3°C° 0 mm 4 m/s 754 mm Hg 59%
21:00 -4°C° 0 mm 5 m/s 753 mm Hg 58%
22:00 -4°C° 0 mm 5 m/s 753 mm Hg 57%
23:00 -4°C° 0 mm 6 m/s 753 mm Hg 55%

7 Marzo, Domenica

Tempo Temperatura Precipitazioni Vento Pressione Umidità
00:00 -4°C° 0 mm 6 m/s 752 mm Hg 54%
01:00 -4°C° 0 mm 6 m/s 751 mm Hg 52%
02:00 -4°C° 0 mm 7 m/s 751 mm Hg 52%
03:00 -4°C° 0 mm 7 m/s 750 mm Hg 53%
04:00 -5°C° 0 mm 8 m/s 749 mm Hg 53%
05:00 -4°C° 0 mm 8 m/s 749 mm Hg 55%
06:00 -4°C° 0 mm 8 m/s 749 mm Hg 56%
07:00 -4°C° 0 mm 8 m/s 748 mm Hg 58%
08:00 -4°C° 0 mm 9 m/s 748 mm Hg 60%
09:00 -3°C° 0 mm 9 m/s 748 mm Hg 62%
10:00 -3°C° 0 mm 9 m/s 748 mm Hg 63%
11:00 -1°C° 0 mm 9 m/s 747 mm Hg 64%
12:00 -1°C° 0 mm 9 m/s 747 mm Hg 64%
13:00 -1°C° 0 mm 9 m/s 746 mm Hg 64%
14:00 -1°C° 0 mm 9 m/s 746 mm Hg 66%
15:00 -1°C° 0 mm 9 m/s 745 mm Hg 67%
16:00 -3°C° 0 mm 9 m/s 745 mm Hg 69%
17:00 -2°C° 0 mm 8 m/s 745 mm Hg 71%
18:00 -2°C° 0 mm 8 m/s 745 mm Hg 73%
19:00 -3°C° 0 mm 7 m/s 745 mm Hg 75%
20:00 -4°C° 0.1 mm 7 m/s 746 mm Hg 77%
21:00 -4°C° 0.1 mm 6 m/s 746 mm Hg 78%
22:00 -5°C° 0.1 mm 6 m/s 746 mm Hg 80%
23:00 -5°C° 0 mm 5 m/s 747 mm Hg 75%
Mostrare altro